Regional Weather Roundup
Issued by NWS

Home | Current Version | Previous Version | Graphics & Text | Print | Product List | Glossary On
Versions: 1 2 3 4 5 6 7 8 9 10 11 12 13 14 15 16 17 18 19 20 21 22 23 24 25 26 27 28 29 30 31 32 33 34 35 36 37 38 39 40 41 42 43 44 45 46 47 48 49 50
000
ASUS43 KOAX 270910
RWRNE

WEATHER ROUNDUP FOR NEBRASKA
NATIONAL WEATHER SERVICE OMAHA NE
400 AM CDT FRI MAR 27 2015

NOTES: SATELLITE DATA IS BEING USED TO AUGMENT CLOUD COVER ABOVE
       12000 FEET.
       "FAIR" INDICATES FEW OR NO CLOUDS BELOW 12,000 FEET WITH NO
       SIGNIFICANT WEATHER AND/OR OBSTRUCTIONS TO VISIBILITY.

  * THESE STATIONS DO NOT REPORT WEATHER SUCH AS RAIN...SNOW OR FOG.

NEZ001>004-019>022-054>056-271000-
NEBRASKA PANHANDLE

CITY           SKY/WX    TMP DP  RH WIND       PRES   REMARKS
SCOTTSBLUFF    LGT RAIN  39  32  76 E13       30.16S WCI  31
ALLIANCE       CLOUDY    36  31  82 S7        30.15F WCI  30
CHADRON        CLOUDY    39  31  72 S8        30.13F WCI  33
KIMBALL        LGT RAIN  41  32  70 CALM      30.13S
SIDNEY         CLOUDY    37  29  72 S8        30.17R WCI  31
$$

NEZ057>060-069>072-079>082-271000-
SOUTHWEST NEBRASKA

CITY           SKY/WX    TMP DP  RH WIND       PRES   REMARKS
NORTH PLATTE   CLOUDY    31  28  89 CALM      30.23S
IMPERIAL       LGT SNOW  33  30  88 SE6       30.20F FOG     WCI  28
LEXINGTON      CLOUDY    33  27  76 NE5       30.24S WCI  29
MCCOOK         LGT SNOW  34  28  79 CALM      30.25R
OGALLALA       CLOUDY    32  31  96 E3        30.20F FOG
$$

NEZ005>010-023>029-035>040-094-271000-
NORTH CENTRAL NEBRASKA

CITY           SKY/WX    TMP DP  RH WIND       PRES   REMARKS
VALENTINE      CLOUDY    32  27  81 CALM      30.21S
AINSWORTH      CLOUDY    30  28  90 CALM      30.22S
BROKEN BOW     CLOUDY    32  25  75 CALM      30.22S
O`NEILL        PTCLDY    23  21  91 N5        30.26S WCI  17
ORD            MOCLDY    27  23  85 N5        30.24R WCI  22
THEDFORD       CLOUDY    33  28  85 S3        30.22R
$$

NEZ041-046>049-061>064-073>077-083>087-271000-
SOUTH CENTRAL NEBRASKA

CITY           SKY/WX    TMP DP  RH WIND       PRES   REMARKS
GRAND ISLAND   PTCLDY    28  24  85 NW9       30.25R WCI  19
AURORA         MOCLDY    28  26  94 N8        30.24S WCI  20
HASTINGS       MOCLDY    27  23  85 NW8       30.23R WCI  19
HEBRON         PTCLDY    29  28  93 NW6       30.24R WCI  23
HOLDREGE       CLOUDY    32  24  73 N5        30.23S WCI  28
KEARNEY *      CLOUDY    30  25  80 NW6       30.24F WCI  24
YORK           PTCLDY    28  27  93 NE10      30.24R WCI  19
$$

NEZ011>018-030>034-042>045-271000-
NORTHEAST NEBRASKA

CITY           SKY/WX    TMP DP  RH WIND       PRES   REMARKS
NORFOLK        PTCLDY    25  19  78 N8        30.25R WCI  16
ALBION         PTCLDY    25  21  82 N5        30.25S WCI  20
BLAIR          CLEAR     28  19  68 N10       30.23R WCI  19
COLUMBUS *     PTCLDY    25  16  68 CALM      30.27R
FREMONT        CLEAR     26  21  80 N3        30.25S
TEKAMAH        CLEAR     21  17  84 NW12      30.26S WCI   9
WAYNE          CLEAR     19  15  84 N3        30.26S
$$

NEZ050>053-065>068-078-088>093-271000-
SOUTHEAST NEBRASKA

CITY           SKY/WX    TMP DP  RH WIND       PRES   REMARKS
LINCOLN        CLEAR     26  22  84 N10       30.25R WCI  16
OMAHA EPPLEY   PTCLDY    27  20  75 N9        30.24S WCI  18
BEATRICE       MOCLDY    30  29  96 N9        30.22R WCI  21
FALLS CITY     MOCLDY    32  28  85 N8        30.21R WCI  25
NEBRASKA CITY  PTCLDY    29  25  85 N8        30.22R WCI  21
PLATTSMOUTH    PTCLDY    28  19  70 N10       30.23R WCI  18
$$

NEZ044-045-051>053-067-271000-
OMAHA AREA

CITY           SKY/WX    TMP DP  RH WIND       PRES   REMARKS
OMAHA EPPLEY   PTCLDY    27  20  75 N9        30.24S WCI  18
BLAIR          CLEAR     28  19  68 N10       30.23R WCI  19
FREMONT        CLEAR     26  21  80 N3        30.25S
MILLARD        CLEAR     30  19  61 CALM      30.25R
OFFUTT AFB     CLEAR     28  19  68 N8        30.24R WCI  20
PLATTSMOUTH    PTCLDY    28  19  70 N10       30.23R WCI  18
WAHOO          FAIR      26  21  81 N8        30.24S WCI  17
$$



USA.gov is the U.S. government's official web portal to all federal, state and local government web resources and services.